When you browse on this site, cookies collect data to enhance your experience and personalize the content and advertising you see.
Visit our Privacy Policy to learn more. By continuing to use the site, you agree to this use of cookies and data.
  • Em Portugal
  • Lista de países
  • Para 7 dias
  • Temperatura da água
  • Mapas de satélite
  • Mapa do tempo
  • Widgets de tempo
  • user-avatar
    Iniciar Sessão

    Previsão horária em Gotelp

    Hoje, 10 Dezembro, Segunda-feira

    Tempo Temperatura Precipitação Vento Pressão Humidade
    00:00 +4°C° 0.1 mm 3 m/s 733 mmHg 91%
    01:00 +4°C° 0.1 mm 4 m/s 733 mmHg 92%
    02:00 +4°C° 0.3 mm 4 m/s 733 mmHg 87%
    03:00 +2°C° 0.3 mm 5 m/s 734 mmHg 82%
    04:00 +2°C° 0.3 mm 6 m/s 735 mmHg 77%
    05:00 +2°C° 0 mm 6 m/s 735 mmHg 77%
    06:00 +2°C° 0 mm 5 m/s 735 mmHg 78%
    07:00 +1°C° 0 mm 5 m/s 736 mmHg 78%
    08:00 +1°C° 0 mm 5 m/s 736 mmHg 76%
    09:00 +2°C° 0 mm 5 m/s 737 mmHg 75%
    10:00 +2°C° 0 mm 5 m/s 737 mmHg 73%
    11:00 +2°C° 0 mm 6 m/s 738 mmHg 70%
    12:00 +2°C° 0 mm 6 m/s 738 mmHg 66%
    13:00 +3°C° 0 mm 6 m/s 738 mmHg 63%
    14:00 +2°C° 0 mm 5 m/s 738 mmHg 66%
    15:00 +2°C° 0 mm 5 m/s 739 mmHg 69%
    16:00 +1°C° 0 mm 4 m/s 739 mmHg 72%
    17:00 +1°C° 0 mm 4 m/s 739 mmHg 75%
    18:00 0°C° 0 mm 4 m/s 739 mmHg 77%
    19:00 0°C° 0 mm 4 m/s 739 mmHg 79%
    20:00 0°C° 0 mm 4 m/s 739 mmHg 81%
    21:00 0°C° 0 mm 4 m/s 739 mmHg 83%
    22:00 0°C° 0 mm 3 m/s 739 mmHg 85%
    23:00 +1°C° 0.1 mm 3 m/s 739 mmHg 85%

    Amanhã, 11 Dezembro, Terça-feira

    Tempo Temperatura Precipitação Vento Pressão Humidade
    00:00 +1°C° 0.1 mm 3 m/s 739 mmHg 86%
    01:00 +1°C° 0.1 mm 3 m/s 740 mmHg 87%
    02:00 +2°C° 0.2 mm 2 m/s 740 mmHg 88%
    03:00 +2°C° 0.2 mm 2 m/s 740 mmHg 89%
    04:00 +2°C° 0.2 mm 2 m/s 740 mmHg 91%
    05:00 +2°C° 0.1 mm 2 m/s 740 mmHg 92%
    06:00 +3°C° 0.1 mm 1 m/s 740 mmHg 92%
    07:00 +2°C° 0.1 mm 1 m/s 741 mmHg 93%
    08:00 +2°C° 0 mm 2 m/s 741 mmHg 93%
    09:00 +2°C° 0 mm 2 m/s 742 mmHg 92%
    10:00 +2°C° 0 mm 2 m/s 743 mmHg 91%
    11:00 +2°C° 0 mm 2 m/s 743 mmHg 89%
    12:00 +1°C° 0 mm 3 m/s 743 mmHg 87%
    13:00 +2°C° 0 mm 3 m/s 744 mmHg 85%
    14:00 +1°C° 0 mm 3 m/s 744 mmHg 86%
    15:00 +2°C° 0 mm 2 m/s 745 mmHg 88%
    16:00 +1°C° 0 mm 2 m/s 746 mmHg 90%
    17:00 +1°C° 0 mm 2 m/s 746 mmHg 91%
    18:00 -1°C° 0 mm 2 m/s 747 mmHg 92%
    19:00 -1°C° 0 mm 2 m/s 747 mmHg 93%
    20:00 -1°C° 0 mm 2 m/s 747 mmHg 92%
    21:00 -1°C° 0 mm 2 m/s 748 mmHg 92%
    22:00 -1°C° 0 mm 2 m/s 748 mmHg 92%
    23:00 +1°C° 0 mm 1 m/s 749 mmHg 92%

    Depois de amanhã, 12 Dezembro, Quarta-feira

    Tempo Temperatura Precipitação Vento Pressão Humidade
    00:00 +1°C° 0 mm 1 m/s 749 mmHg 91%
    01:00 +1°C° 0 mm 1 m/s 750 mmHg 91%
    02:00 +1°C° 0 mm 1 m/s 750 mmHg 91%
    03:00 +1°C° 0 mm 1 m/s 750 mmHg 91%
    04:00 +2°C° 0 mm 1 m/s 750 mmHg 91%
    05:00 +2°C° 0.2 mm 1 m/s 751 mmHg 91%
    06:00 +2°C° 0.2 mm 1 m/s 751 mmHg 91%
    07:00 +2°C° 0.2 mm 1 m/s 751 mmHg 91%
    08:00 +2°C° 0.1 mm 1 m/s 752 mmHg 91%
    09:00 +2°C° 0.1 mm 1 m/s 752 mmHg 91%
    10:00 +2°C° 0.1 mm 1 m/s 752 mmHg 90%
    11:00 +2°C° 0 mm 1 m/s 752 mmHg 89%
    12:00 +3°C° 0 mm 1 m/s 752 mmHg 87%
    13:00 +3°C° 0 mm 1 m/s 752 mmHg 86%
    14:00 +2°C° 0 mm 1 m/s 752 mmHg 88%
    15:00 +2°C° 0 mm 1 m/s 753 mmHg 91%
    16:00 -1°C° 0 mm 2 m/s 753 mmHg 93%
    17:00 -1°C° 0 mm 2 m/s 753 mmHg 93%
    18:00 -1°C° 0 mm 2 m/s 753 mmHg 94%
    19:00 -1°C° 0 mm 2 m/s 753 mmHg 94%
    20:00 -1°C° 0 mm 2 m/s 754 mmHg 94%
    21:00 -1°C° 0 mm 2 m/s 754 mmHg 94%
    22:00 -1°C° 0 mm 2 m/s 754 mmHg 94%
    23:00 -1°C° 0 mm 2 m/s 754 mmHg 93%

    13 Dezembro, Quinta-feira

    Tempo Temperatura Precipitação Vento Pressão Humidade
    00:00 -1°C° 0 mm 2 m/s 754 mmHg 92%
    01:00 -1°C° 0 mm 2 m/s 754 mmHg 91%
    02:00 -1°C° 0 mm 2 m/s 754 mmHg 92%
    03:00 -2°C° 0 mm 2 m/s 754 mmHg 93%
    04:00 -2°C° 0 mm 2 m/s 754 mmHg 94%
    05:00 -2°C° 0 mm 2 m/s 754 mmHg 93%
    06:00 -2°C° 0 mm 2 m/s 754 mmHg 93%
    07:00 -2°C° 0 mm 2 m/s 754 mmHg 92%
    08:00 -1°C° 0 mm 2 m/s 754 mmHg 90%
    09:00 -1°C° 0 mm 2 m/s 754 mmHg 88%
    10:00 -1°C° 0 mm 2 m/s 754 mmHg 85%
    11:00 -1°C° 0 mm 2 m/s 754 mmHg 84%
    12:00 -1°C° 0 mm 2 m/s 753 mmHg 82%
    13:00 +1°C° 0 mm 2 m/s 753 mmHg 81%
    14:00 -1°C° 0 mm 2 m/s 753 mmHg 82%
    15:00 -1°C° 0 mm 2 m/s 753 mmHg 84%
    16:00 +1°C° 0 mm 1 m/s 753 mmHg 86%
    17:00 0°C° 0 mm 1 m/s 752 mmHg 86%
    18:00 -2°C° 0 mm 2 m/s 752 mmHg 86%
    19:00 -2°C° 0 mm 2 m/s 752 mmHg 87%
    20:00 -2°C° 0 mm 2 m/s 752 mmHg 87%
    21:00 -2°C° 0 mm 2 m/s 752 mmHg 88%
    22:00 -2°C° 0 mm 2 m/s 752 mmHg 88%
    23:00 -2°C° 0 mm 2 m/s 752 mmHg 88%

    14 Dezembro, Sexta-feira

    Tempo Temperatura Precipitação Vento Pressão Humidade
    00:00 -2°C° 0 mm 2 m/s 752 mmHg 89%
    01:00 0°C° 0 mm 1 m/s 752 mmHg 89%
    02:00 -2°C° 0 mm 2 m/s 752 mmHg 89%
    03:00 -3°C° 0 mm 2 m/s 752 mmHg 90%
    04:00 -3°C° 0 mm 2 m/s 752 mmHg 90%
    05:00 -3°C° 0 mm 2 m/s 752 mmHg 90%
    06:00 -3°C° 0 mm 2 m/s 752 mmHg 89%
    07:00 -3°C° 0 mm 2 m/s 753 mmHg 89%
    08:00 -2°C° 0 mm 2 m/s 753 mmHg 87%
    09:00 -2°C° 0 mm 2 m/s 753 mmHg 86%
    10:00 -2°C° 0 mm 2 m/s 753 mmHg 85%
    11:00 -2°C° 0 mm 2 m/s 753 mmHg 84%
    12:00 -1°C° 0 mm 2 m/s 753 mmHg 83%
    13:00 -1°C° 0 mm 2 m/s 754 mmHg 82%
    14:00 -1°C° 0 mm 2 m/s 754 mmHg 84%
    15:00 -1°C° 0 mm 2 m/s 754 mmHg 86%
    16:00 -1°C° 0 mm 2 m/s 754 mmHg 88%
    17:00 -2°C° 0 mm 2 m/s 754 mmHg 88%
    18:00 -2°C° 0 mm 3 m/s 754 mmHg 88%
    19:00 -2°C° 0 mm 3 m/s 754 mmHg 88%
    20:00 -2°C° 0 mm 3 m/s 754 mmHg 87%
    21:00 -2°C° 0 mm 3 m/s 754 mmHg 87%
    22:00 -2°C° 0 mm 2 m/s 754 mmHg 87%
    23:00 -2°C° 0 mm 2 m/s 754 mmHg 87%

    15 Dezembro, Sábado

    Tempo Temperatura Precipitação Vento Pressão Humidade
    00:00 -3°C° 0 mm 2 m/s 754 mmHg 87%
    01:00 -3°C° 0 mm 2 m/s 754 mmHg 87%
    02:00 -3°C° 0 mm 2 m/s 754 mmHg 87%
    03:00 -2°C° 0 mm 2 m/s 754 mmHg 87%
    04:00 -2°C° 0 mm 2 m/s 754 mmHg 87%
    05:00 -2°C° 0 mm 2 m/s 755 mmHg 88%
    06:00 -3°C° 0 mm 2 m/s 755 mmHg 89%
    07:00 -3°C° 0 mm 2 m/s 755 mmHg 90%
    08:00 -2°C° 0 mm 3 m/s 755 mmHg 88%
    09:00 -2°C° 0 mm 3 m/s 756 mmHg 86%
    10:00 -2°C° 0 mm 3 m/s 756 mmHg 84%
    11:00 -2°C° 0 mm 3 m/s 756 mmHg 82%
    12:00 -2°C° 0 mm 3 m/s 756 mmHg 80%
    13:00 -1°C° 0 mm 3 m/s 756 mmHg 78%
    14:00 -2°C° 0 mm 3 m/s 756 mmHg 78%
    15:00 -2°C° 0 mm 2 m/s 756 mmHg 79%
    16:00 -2°C° 0 mm 2 m/s 756 mmHg 80%
    17:00 -2°C° 0 mm 2 m/s 756 mmHg 81%
    18:00 -2°C° 0 mm 2 m/s 756 mmHg 82%
    19:00 -3°C° 0 mm 2 m/s 756 mmHg 83%
    20:00 -3°C° 0 mm 2 m/s 756 mmHg 84%
    21:00 -3°C° 0 mm 2 m/s 756 mmHg 86%
    22:00 -3°C° 0 mm 2 m/s 756 mmHg 87%
    23:00 -3°C° 0 mm 2 m/s 756 mmHg 88%
    Mostrar mais